Flag for U.S.A. Weather past 2 weeks in Cumberland, Maryland, U.S.A.

Now
72 °F

Clear.


Feels Like: 70 °F
Forecast: 68 / 91 °F
Wind: No wind

Location: Eastern West Virginia Regional Airport

Current Time: Jul 23, 2014 at 2:27:35 AM

Latest Report: Jul 23, 2014 at 12:53 AM


Visibility: 8 mi

Pressure: 30.03 "Hg

Humidity: 87%

Dew point: 68 °F

Location of CumberlandLocation

Historic Weather in Cumberland — Graph

°F

Cumberland temperature yesterday

Maximum temperature yesterday: 84 °F (at 12:53 PM)
Minimum temperature yesterday: 66 °F (at 5:53 AM)
Average temperature yesterday: 75 °F

Past Weeks' High & Low Weather Summary

 TemperatureHumidityPressure
High91 °F (Jul 8, 2:53 PM)93% (Jul 15, 6:53 AM)30.26 "Hg (Jul 15, 6:53 AM)
Low56 °F (Jul 18, 5:53 AM)32% (Jul 9, 4:53 PM)29.70 "Hg (Jul 8, 4:53 PM)
Average74 °F68%30.03 "Hg
* Reported Jul 8 12:53 AM — Jul 23 12:53 AM, Cumberland, Weather by CustomWeather, © 2014

Note: Actual official high and low records may vary slightly from our data, if they occured in-between our weather recording intervals... More about our weather records

Advertising

Cumberland weather history for July 8, 2014

 ConditionsComfort  
Time TempWeatherWind HumidityBarometerVisibility
12:53 AM
Jul 8
76 °FClear.3 mph64%29.84 "Hg10 mi
1:53 AM75 °FClear.3 mph66%29.83 "Hg10 mi
2:53 AM75 °FClear.5 mph66%29.81 "Hg10 mi
3:53 AM71 °FClear.3 mph76%29.80 "Hg9 mi
4:53 AM71 °FClear.No wind76%29.79 "Hg9 mi
5:53 AM70 °FClear.3 mph81%29.82 "Hg9 mi
6:53 AM74 °FPassing clouds.6 mph67%29.84 "Hg10 mi
7:53 AM76 °FSunny.5 mph62%29.84 "Hg10 mi
8:53 AM78 °FSunny.6 mph58%29.84 "Hg10 mi
9:53 AM82 °FPartly sunny.8 mph53%29.85 "Hg10 mi
10:53 AM83 °FPassing clouds.7 mph51%29.83 "Hg10 mi
11:53 AM83 °FSunny.8 mph51%29.83 "Hg10 mi
12:53 PM87 °FPassing clouds.14 mph48%29.81 "Hg10 mi
1:53 PM90 °FPassing clouds.10 mph42%29.79 "Hg10 mi
2:53 PM91 °FPassing clouds.15 mph42%29.74 "Hg10 mi
3:53 PM90 °FSunny.14 mph47%29.70 "Hg10 mi
4:53 PM90 °FPassing clouds.14 mph45%29.70 "Hg10 mi
5:57 PM70 °FStrong thunderstorms. Partly sunny.13 mph84%29.79 "Hg0 mi
6:53 PM72 °FPassing clouds.8 mph81%29.77 "Hg10 mi
7:53 PM72 °FSunny.7 mph78%29.77 "Hg10 mi
8:53 PM71 °FSunny.7 mph81%29.79 "Hg10 mi
9:53 PM70 °FClear.6 mph81%29.83 "Hg10 mi
10:53 PM69 °FClear.3 mph84%29.84 "Hg10 mi
Weather by CustomWeather, © 2014

See weather overviewHow to use our weather pages